Location: Durham
(54.7770°N, 1.5720°W)
Time: 02:31:14
(UTC+01:00)

ISS - Visible Passes

Search period start: 30 September 2016 00:00
Search period end: 10 October 2016 00:00
Orbit: 400 x 409 km, 51.6° (Epoch: 30 September)

Date Brightness Start Highest point End Pass type
(mag) Time Alt. Az. Time Alt. Az. Time Alt. Az.
30 Sep -0.8 20:59:17 10° SSW 20:59:43 13° SSW 20:59:43 13° SSW visible
01 Oct -1.5 20:07:46 10° SSW 20:09:57 17° SSE 20:09:57 17° SSE visible
02 Oct -1.1 19:16:46 10° SSE 19:18:04 12° SE 19:19:22 10° ESE visible
02 Oct -1.7 20:50:52 10° SW 20:52:43 25° SSW 20:52:43 25° SSW visible
03 Oct -2.1 19:59:02 10° SW 20:01:48 26° SSE 20:02:42 23° SE visible
03 Oct -0.5 21:34:44 10° WSW 21:35:22 14° WSW 21:35:22 14° WSW visible
04 Oct -1.6 19:07:23 10° SSW 19:09:48 19° SSE 19:12:13 10° ESE visible
04 Oct -2.5 20:42:40 10° WSW 20:45:15 39° SSW 20:45:15 39° SSW visible
05 Oct -2.5 19:50:38 10° SW 19:53:40 36° SSE 19:55:05 23° ESE visible
05 Oct -0.8 21:26:41 10° W 21:27:44 19° WSW 21:27:44 19° WSW visible
06 Oct -2.1 18:58:42 10° SW 19:01:34 28° SSE 19:04:26 10° E visible
06 Oct -2.9 20:34:31 10° WSW 20:37:31 48° S 20:37:31 48° S visible
07 Oct -2.8 19:42:23 10° WSW 19:45:32 45° S 19:47:15 22° ESE visible
07 Oct -1.0 21:18:37 10° W 21:19:54 20° WSW 21:19:54 20° WSW visible
08 Oct -2.9 20:26:24 10° W 20:29:33 46° S 20:29:37 46° S visible
09 Oct -2.8 19:34:11 10° WSW 19:37:21 48° S 19:39:19 20° ESE visible
09 Oct -1.0 21:10:34 10° W 21:11:58 20° WSW 21:11:58 20° WSW visible
